Weather History for Providence, RI

Change the Weather History Date:

Tuesday, September 2, 2014

  Actual Average Record
Temperature  
Mean Temperature 81 °F 69 °F  
Max Temperature 91 °F 79 °F 99 °F (1953)
Min Temperature 71 °F 60 °F 47 °F (1991)
Degree Days  
Heating Degree Days 0 1  
Month to date heating degree days 0 2  
Since 1 July heating degree days 0 11  
Cooling Degree Days 16 5  
Month to date cooling degree days 32 10  
Year to date cooling degree days 614 666  
Growing Degree Days 31 (Base 50)    
Moisture  
Dew Point 71 °F    
Average Humidity 78    
Maximum Humidity 100    
Minimum Humidity 55    
Precipitation  
Precipitation 0.00 in 0.11 in 2.82 in (2013)
Month to date precipitation 0.00 0.23  
Year to date precipitation 31.45 30.83  
Snow  
Snow 0.00 in 0.00 in 0.00 in (2002)
Month to date snowfall 0.0 0.0  
Since 1 July snowfall 0.0 0.0  
Since 1 September snowfall 0.0 0.0  
Snow Depth 0.00 in    
Sea Level Pressure  
Sea Level Pressure 29.88 in    
Wind  
Wind Speed 8 mph (South)    
Max Wind Speed 21 mph    
Max Gust Speed 25 mph    
Visibility 8 miles    
Events Fog    
T = Trace of Precipitation, MM = Missing Value Source: NWS Daily Summary

Daily Weather History Graph

Daily Weather History Graph

Search for Another Location

Airport:

Trip Planner

Search our weather history database for the weather conditions in past years. The results will help you decide how hot, cold, wet, or windy it might be!

Date:

Astronomy

Sep. 02, 2014 Rise Set
Actual Time 6:12 AM EDT 7:17 PM EDT
Civil Twilight 5:44 AM EDT 7:45 PM EDT
Nautical Twilight 5:10 AM EDT 8:19 PM EDT
Astronomical Twilight 4:34 AM EDT 8:55 PM EDT
Moon 1:59 PM EDT (9/2) No Moon Set
Length of Visible Light 14h 01m
Length of Day
13h 04m
First Quarter, 52% of the Moon is Illuminated
Sep 2
First Quarter
Sep 8
Full
Sep 15
Last Quarter
Sep 24
New
Oct 1
First Quarter

Hourly Weather History & Observations

Time (EDT) Temp. Heat Index Dew Point Humidity Pressure Visibility Wind Dir Wind Speed Gust Speed Precip Events Conditions
12:51 AM 73.0 °F - 70.0 °F 90% 29.96 in 10.0 mi South 4.6 mph - N/A   Mostly Cloudy
1:51 AM 73.0 °F - 70.0 °F 90% 29.93 in 10.0 mi SE 3.5 mph - N/A   Overcast
2:51 AM 72.0 °F - 70.0 °F 93% 29.92 in 10.0 mi SSW 4.6 mph - N/A   Overcast
3:51 AM 72.0 °F - 71.1 °F 97% 29.91 in 9.0 mi SSE 4.6 mph - N/A   Overcast
4:15 AM 72.0 °F - 71.1 °F 97% 29.91 in 6.0 mi SE 3.5 mph - N/A   Overcast
4:51 AM 71.6 °F - 69.8 °F 94% 29.91 in 4.0 mi South 5.8 mph - N/A   Mostly Cloudy
5:51 AM 71.1 °F - 70.0 °F 96% 29.91 in 3.0 mi SSE 4.6 mph - N/A   Overcast
6:00 AM 71.1 °F - 70.0 °F 96% 29.91 in 0.5 mi South 4.6 mph - N/A Fog Fog
6:51 AM 71.1 °F - 71.1 °F 100% 29.93 in 0.5 mi South 4.6 mph - N/A Fog Fog
7:51 AM 71.6 °F - 71.6 °F 100% 29.93 in 1.8 mi South 5.8 mph - N/A   Overcast
7:58 AM 72.0 °F - 71.1 °F 97% 29.93 in 3.0 mi South 5.8 mph - N/A   Overcast
8:51 AM 73.9 °F - 72.0 °F 93% 29.94 in 7.0 mi SSE 5.8 mph - N/A   Mostly Cloudy
9:51 AM 80.1 °F 84.2 °F 73.0 °F 79% 29.94 in 10.0 mi SE 5.8 mph - N/A   Scattered Clouds
10:51 AM 82.4 °F 88.2 °F 73.4 °F 74% 29.93 in 10.0 mi SSE 6.9 mph - N/A   Scattered Clouds
11:51 AM 84.0 °F 91.2 °F 73.9 °F 72% 29.90 in 10.0 mi SE 10.4 mph - N/A   Mostly Cloudy
12:51 PM 82.9 °F 89.4 °F 73.9 °F 74% 29.88 in 10.0 mi SE 5.8 mph - N/A   Mostly Cloudy
1:51 PM 87.1 °F 94.5 °F 73.0 °F 63% 29.85 in 10.0 mi Variable 6.9 mph - N/A   Mostly Cloudy
2:51 PM 89.1 °F 96.0 °F 72.0 °F 57% 29.84 in 10.0 mi SSW 13.8 mph 21.9 mph N/A   Mostly Cloudy
3:51 PM 87.1 °F 92.8 °F 71.1 °F 59% 29.83 in 10.0 mi South 15.0 mph 21.9 mph N/A   Mostly Cloudy
4:51 PM 87.1 °F 92.0 °F 70.0 °F 57% 29.82 in 10.0 mi South 16.1 mph - N/A   Mostly Cloudy
5:51 PM 84.9 °F 89.4 °F 70.0 °F 61% 29.82 in 10.0 mi SSW 11.5 mph - N/A   Mostly Cloudy
6:51 PM 82.0 °F 85.5 °F 69.1 °F 65% 29.81 in 10.0 mi SSW 10.4 mph - N/A   Mostly Cloudy
7:51 PM 79.0 °F - 70.0 °F 74% 29.81 in 10.0 mi South 8.1 mph - N/A   Scattered Clouds
8:51 PM 77.0 °F - 71.1 °F 82% 29.81 in 10.0 mi South 6.9 mph - N/A   Scattered Clouds
9:51 PM 77.0 °F - 71.1 °F 82% 29.80 in 10.0 mi SSW 10.4 mph - N/A   Partly Cloudy
10:51 PM 75.2 °F - 71.6 °F 89% 29.79 in 10.0 mi SSW 9.2 mph - N/A   Partly Cloudy
11:51 PM 75.0 °F - 71.1 °F 87% 29.77 in 10.0 mi South 6.9 mph - N/A   Clear